Regional Weather Roundup
Issued by NWS Newport/Morehead, NC

Current Version | Previous Version | Graphics & Text | Print | Product List | Glossary On
Versions: 1 2 3 4 5 6 7 8 9 10 11 12 13 14 15 16 17 18 19 20 21 22 23 24 25 26 27 28 29 30 31 32 33 34 35 36 37 38 39 40 41 42 43 44 45 46 47 48 49 50
000 ASUS42 KMHX 280422 RWRMHX WEATHER ROUNDUP FOR EASTERN NORTH CAROLINA NATIONAL WEATHER SERVICE NEWPORT/MOREHEAD CITY NC 1100 PM EST SAT DEC 27 2014 NOTE: "FAIR" INDICATES FEW OR NO CLOUDS BELOW 12,000 FEET WITH NO SIGNIFICANT WEATHER AND/OR OBSTRUCTIONS TO VISIBILITY NCZ015>017-031-032-045>047-102-103-280500- NORTH COAST CITY SKY/WX TMP DP RH WIND PRES REMARKS EDENTON N/A 47 43 85 S6 30.20F ELIZABETH CITY PTCLDY 51 41 68 S6 30.20F KITTY HAWK CLEAR 49 41 73 SW5 30.21F MANTEO CLEAR 46 41 81 CALM 30.23F $$ NCZ045>047-081-094-103-104-280500- CENTRAL COAST CITY SKY/WX TMP DP RH WIND PRES REMARKS FRISCO PTCLDY 54 49 83 W6 30.23F SWANQUARTER N/A 48 N/A N/A S3 30.18F $$ NCZ095-097-098-100-101-280500- SOUTHERN COAST CITY SKY/WX TMP DP RH WIND PRES REMARKS BEAUFORT PTCLDY 46 45 96 SE3 30.23F CEDAR ISLAND N/A 48 N/A N/A S3 30.27S JACKSONVILLE MOCLDY 45 43 93 CALM 30.22F PINEY ISLAND MOCLDY 50 43 77 CALM 30.23F WILMINGTON PTCLDY 46 44 93 CALM 30.22F $$ NCZ011>013-027>030-043-044-078>080-089-090>093-098-280500- COASTAL PLAIN CITY SKY/WX TMP DP RH WIND PRES REMARKS AHOSKIE CLOUDY 44 39 82 SE3 30.19F CLINTON MOCLDY 49 46 87 CALM 30.21F ELIZABETHTOWN MOCLDY 51 44 76 S6 30.20F GOLDSBORO PTCLDY 50 49 97 E1 30.21S GREENVILLE MOCLDY 46 41 81 S6 30.21F HAVELOCK N/A 43 40 89 CALM 30.24F KENANSVILLE MOCLDY 45 42 88 CALM 30.23S KINSTON PTCLDY 48 42 80 S5 30.22F NEW BERN MOCLDY 47 42 83 CALM 30.23F RICHLANDS MOCLDY 48 45 87 SW3 30.23S ROCKY MOUNT PTCLDY 44 41 89 SW5 30.21R WASHINGTON MOCLDY 48 43 81 S3 30.21F WHITEVILLE MOCLDY 48 44 87 CALM 30.22F $$ AMZ130-135-150-152-154-156-158-170-250-252-270-ANZ085-086-088-633-658-670-280500- MARINE OBSERVATIONS STATION/POSITION TIME TEMP WIND PRES WAVE SWELL AIR SEA DIR/SP/G HT/PER HT/PER (UTC) (F) (DEG/KT/KT) (MB) (FT/S) (FT/S) CHESAPEAKE LIGHT 0400 49 210/ 19/ 20 1022.6 64 E VA BEACH 0400 54 53 230/ 12/ 14 1022.7 4/15 3/15 DUCK 0400 51 49 210/ 8/ 10 1022.1 2 E DUCK 0400 48 N/A 3/15 3/15 10 NE DUCK 0400 51 N/A 4/15 3/15 OREGON INLET 0400 51 53 220/ 5/ 5 1023.4 13E OREGON INLT 0400 52 N/A 3/14 3/14 HATTERAS CG 0400 53 54 320/ 2/ 4 1024.0 DIAMOND BUOY 0400 66 1023.9 4/15 17 S OCRACOKE NOT AVBL CAPE LOOKOUT 0400 59 200/ 5/ 5 1023.5 BEAUFORT LAB 0400 52 55 130/ 3/ 4 1022.4 30 SE NEW RIVER 0400 61 61 170/ 4/ 4 1024.2 3/16 3/16 5 SE WRIGHTSVLE NOT AVBL 225 S CAPE HAT 0339 70 74 160/ 6/ 8 1025.5 5/15 5/15 41 SE CHARLESTON 0400 71 74 120/ 10/ 12 1022.9 2/14 2/14 $$

USA.gov is the U.S. government's official web portal to all federal, state and local government web resources and services.